JIELONG 3 DEB, 62575

Orbit data source: Space-Track

JIELONG 3 DEB, 62575 is space debris in LEO originally from a launch on Mon, 13 Jan 2025 UTC launched from the Yellow Sea Launch Area, China (YSLA). Debris objects in space refer to the collection of defunct objects orbiting the Earth. Examples of debris include non-operational satellites, rocket bodies, and fragments generated from explosions, collisions, or faulty payload assembly.

Loading next visibility...
Identifier
62575, 2025-007A
Orbit
LEO
Country
Flag of CNCN / PRC
Related business
Manufacturer
Changzheng H.
Mission
Spacecraft
Bus & Motor
Unknown
Mass
~100 kg wet, ~100 kg dry
Launch date (UTC)
2025-01-13 (8 months ago)
Launch vehicle
Unknown
Launch site
Yellow Sea Launch Area, China (YSLA)
Object type
Payload
Rocket body
Debris
Shape & HBR
Cyl, 0.8 m
Radar Cross Section
2.062 m², Medium (>0.1 m² and < 1m²)

Expand to show TLE details & history
Last TLE update: 1 day ago

TLE from 1 day ago
0 JIELONG 3 DEB
1 62575U 25007A   25257.36914216  .00001368  00000-0  23066-3 0  9990
2 62575  54.9832 212.0095 0015347 101.0006 259.2721 14.75337443 36047
Epoch: 2025-09-14T08:51Z
TLE epoch observation values (Epoch: 2025-09-14T08:51:33.882Z)
Latitude
-0°
Longitude
85.52918°
Altitude
647.17 km
Speed
7.534 km/s
True Right ascension
14h 08m 02s
True Declination
0° 00' 00"
Sunlit
Object was in daylight at epoch
Visualization orbit readout
Latitude
Unknown
Longitude
Unknown
Altitude
Unknown
Speed
Unknown
Apparent Right ascension
Unknown
Apparent Declination
Unknown
Sunlit
N/A
Visualization observer readout
Local Sidereal Time
03:05:59
Azimuth
Unknown
Elevation
Unknown
Doppler factor
Unknown
Orbital elements
Apogee altitude
654.823 km
Perigee altitude
633.269 km
Semi-major axis
7,022.183 km
Eccentricity
0.00153
Inclination
54.9832°
RAAN
212.0095°
Arg. of periapsis
101.0006°
True anomaly
259.09937°
Mean anomaly
259.2721°
Eccentric anomaly
259.18573°
Mean motion
3.68837 °/min
Orbital period
97.6 mins
BSTAR
0.00023066
Loading maneuver chart data...
Computing Atmospheric mass density...
Loading historical data...
Loading historical data...
Loading historical data...
Loading historical data...
Loading historical data...
Loading historical data...
Loading historical data...

Documentation

Showing up to 5 results
|